TimeMST,TemperatureF,Dew PointF,Humidity,Sea Level PressureIn,VisibilityMPH,Wind Direction,Wind SpeedMPH,Gust SpeedMPH,PrecipitationIn,Events,Conditions,WindDirDegrees,DateUTC
12:15 AM,48.2,14.0,25,30.30,10.0,North,5.8,-,N/A,,Clear,10,2012-11-16 07:15:00
12:35 AM,46.4,14.0,27,30.30,10.0,North,4.6,-,N/A,,Clear,10,2012-11-16 07:35:00
12:55 AM,46.4,14.0,27,30.30,10.0,NW,4.6,-,N/A,,Scattered Clouds,310,2012-11-16 07:55:00
1:15 AM,44.6,12.2,27,30.30,10.0,Calm,Calm,-,N/A,,Scattered Clouds,0,2012-11-16 08:15:00
1:35 AM,41.0,12.2,31,30.30,10.0,Calm,Calm,-,N/A,,Partly Cloudy,0,2012-11-16 08:35:00
1:55 AM,41.0,10.4,29,30.30,10.0,NW,4.6,-,N/A,,Partly Cloudy,310,2012-11-16 08:55:00
2:15 AM,44.6,10.4,25,30.29,10.0,North,4.6,-,N/A,,Mostly Cloudy,360,2012-11-16 09:15:00
2:35 AM,41.0,10.4,29,30.29,10.0,NNE,6.9,-,N/A,,Partly Cloudy,30,2012-11-16 09:35:00
2:55 AM,41.0,10.4,29,30.29,10.0,NNW,6.9,-,N/A,,Mostly Cloudy,340,2012-11-16 09:55:00
3:15 AM,41.0,10.4,29,30.29,10.0,North,9.2,-,N/A,,Mostly Cloudy,360,2012-11-16 10:15:00
3:35 AM,44.6,10.4,25,30.28,10.0,NNE,4.6,-,N/A,,Mostly Cloudy,20,2012-11-16 10:35:00
3:55 AM,41.0,10.4,29,30.28,10.0,NNE,4.6,-,N/A,,Partly Cloudy,20,2012-11-16 10:55:00
4:15 AM,39.2,10.4,31,30.28,10.0,NNW,5.8,-,N/A,,Clear,330,2012-11-16 11:15:00
4:35 AM,37.4,10.4,33,30.27,10.0,North,3.5,-,N/A,,Clear,10,2012-11-16 11:35:00
4:55 AM,39.2,10.4,31,30.28,10.0,North,3.5,-,N/A,,Clear,360,2012-11-16 11:55:00
5:15 AM,37.4,10.4,33,30.28,10.0,North,3.5,-,N/A,,Clear,350,2012-11-16 12:15:00
5:35 AM,37.4,10.4,33,30.28,10.0,NNW,3.5,-,N/A,,Clear,330,2012-11-16 12:35:00
5:55 AM,35.6,10.4,35,30.29,10.0,NW,3.5,-,N/A,,Clear,310,2012-11-16 12:55:00
6:15 AM,37.4,10.4,33,30.29,10.0,Calm,Calm,-,N/A,,Clear,0,2012-11-16 13:15:00
6:35 AM,37.4,10.4,33,30.29,10.0,Calm,Calm,-,N/A,,Clear,0,2012-11-16 13:35:00
6:55 AM,39.2,10.4,31,30.29,10.0,Calm,Calm,-,N/A,,Clear,0,2012-11-16 13:55:00
7:15 AM,41.0,10.4,29,30.30,10.0,NW,4.6,-,N/A,,Clear,320,2012-11-16 14:15:00
7:35 AM,41.0,12.2,31,30.30,10.0,NW,3.5,-,N/A,,Clear,310,2012-11-16 14:35:00
7:55 AM,44.6,12.2,27,30.31,10.0,NW,4.6,-,N/A,,Clear,320,2012-11-16 14:55:00
8:15 AM,46.4,12.2,25,30.32,10.0,NNW,3.5,-,N/A,,Clear,330,2012-11-16 15:15:00
8:35 AM,48.2,12.2,24,30.32,10.0,Calm,Calm,-,N/A,,Clear,0,2012-11-16 15:35:00
8:55 AM,51.8,10.4,19,30.32,4.0,Calm,Calm,-,N/A,,Haze,0,2012-11-16 15:55:00
9:15 AM,53.6,10.4,18,30.33,7.0,ESE,4.6,-,N/A,,Clear,120,2012-11-16 16:15:00
9:35 AM,55.4,10.4,17,30.34,9.0,SSE,6.9,-,N/A,,Scattered Clouds,150,2012-11-16 16:35:00
9:55 AM,55.4,12.2,18,30.34,10.0,SSE,11.5,-,N/A,,Mostly Cloudy,150,2012-11-16 16:55:00
10:15 AM,57.2,12.2,17,30.34,10.0,SE,10.4,-,N/A,,Mostly Cloudy,130,2012-11-16 17:15:00
10:35 AM,57.2,12.2,17,30.33,10.0,SE,15.0,20.7,N/A,,Partly Cloudy,140,2012-11-16 17:35:00
10:55 AM,57.2,14.0,18,30.32,10.0,SE,13.8,19.6,N/A,,Clear,140,2012-11-16 17:55:00
11:15 AM,59.0,14.0,17,30.31,10.0,SE,12.7,17.3,N/A,,Clear,140,2012-11-16 18:15:00
11:35 AM,59.0,14.0,17,30.30,10.0,SSE,12.7,18.4,N/A,,Clear,150,2012-11-16 18:35:00
11:55 AM,59.0,14.0,17,30.29,10.0,SSE,12.7,17.3,N/A,,Clear,150,2012-11-16 18:55:00
12:15 PM,59.0,14.0,17,30.27,10.0,SSE,10.4,16.1,N/A,,Clear,150,2012-11-16 19:15:00
12:35 PM,60.8,14.0,16,30.27,10.0,SSE,10.4,-,N/A,,Clear,160,2012-11-16 19:35:00
12:55 PM,62.6,14.0,15,30.26,10.0,SSE,12.7,16.1,N/A,,Clear,150,2012-11-16 19:55:00
1:15 PM,62.6,15.8,16,30.25,10.0,SSE,9.2,16.1,N/A,,Clear,150,2012-11-16 20:15:00
1:35 PM,62.6,15.8,16,30.25,10.0,SSE,11.5,-,N/A,,Clear,160,2012-11-16 20:35:00
1:55 PM,62.6,15.8,16,30.26,10.0,South,11.5,-,N/A,,Partly Cloudy,170,2012-11-16 20:55:00
2:15 PM,62.6,15.8,16,30.25,10.0,South,9.2,-,N/A,,Scattered Clouds,180,2012-11-16 21:15:00
2:35 PM,62.6,15.8,16,30.24,10.0,South,6.9,-,N/A,,Clear,170,2012-11-16 21:35:00
2:55 PM,62.6,15.8,16,30.24,10.0,SSE,8.1,-,N/A,,Clear,160,2012-11-16 21:55:00
3:15 PM,60.8,15.8,17,30.24,10.0,SSE,9.2,-,N/A,,Clear,160,2012-11-16 22:15:00
3:35 PM,60.8,15.8,17,30.25,10.0,South,9.2,-,N/A,,Partly Cloudy,170,2012-11-16 22:35:00
3:55 PM,60.8,15.8,17,30.25,10.0,SSE,6.9,-,N/A,,Partly Cloudy,160,2012-11-16 22:55:00
4:15 PM,59.0,15.8,19,30.25,10.0,South,6.9,-,N/A,,Partly Cloudy,170,2012-11-16 23:15:00
4:35 PM,59.0,15.8,19,30.25,10.0,SSE,4.6,-,N/A,,Clear,160,2012-11-16 23:35:00
4:55 PM,57.2,15.8,20,30.25,10.0,SSE,4.6,-,N/A,,Clear,160,2012-11-16 23:55:00
5:15 PM,55.4,15.8,21,30.24,10.0,South,3.5,-,N/A,,Clear,170,2012-11-17 00:15:00
5:35 PM,55.4,15.8,21,30.24,10.0,ESE,3.5,-,N/A,,Clear,120,2012-11-17 00:35:00
5:55 PM,51.8,14.0,22,30.24,10.0,ESE,3.5,-,N/A,,Clear,110,2012-11-17 00:55:00
6:15 PM,50.0,14.0,24,30.25,10.0,Calm,Calm,-,N/A,,Clear,0,2012-11-17 01:15:00
6:35 PM,48.2,14.0,25,30.25,10.0,ENE,3.5,-,N/A,,Clear,70,2012-11-17 01:35:00
6:55 PM,46.4,14.0,27,30.25,10.0,NNE,5.8,-,N/A,,Clear,30,2012-11-17 01:55:00
7:15 PM,48.2,14.0,25,30.26,10.0,North,5.8,-,N/A,,Clear,10,2012-11-17 02:15:00
7:35 PM,50.0,15.8,26,30.26,10.0,NNE,6.9,-,N/A,,Clear,20,2012-11-17 02:35:00
7:55 PM,48.2,14.0,25,30.27,10.0,NNE,6.9,-,N/A,,Clear,20,2012-11-17 02:55:00
8:15 PM,46.4,14.0,27,30.27,10.0,North,6.9,-,N/A,,Clear,350,2012-11-17 03:15:00
8:35 PM,44.6,14.0,29,30.28,10.0,NNW,4.6,-,N/A,,Clear,330,2012-11-17 03:35:00
8:55 PM,44.6,15.8,31,30.28,10.0,NNE,5.8,-,N/A,,Partly Cloudy,20,2012-11-17 03:55:00
9:15 PM,46.4,15.8,29,30.28,10.0,North,8.1,-,N/A,,Scattered Clouds,10,2012-11-17 04:15:00
9:35 PM,44.6,15.8,31,30.28,10.0,North,9.2,-,N/A,,Partly Cloudy,10,2012-11-17 04:35:00
9:55 PM,44.6,15.8,31,30.28,10.0,North,8.1,-,N/A,,Clear,10,2012-11-17 04:55:00
10:15 PM,42.8,15.8,34,30.27,10.0,North,9.2,-,N/A,,Clear,10,2012-11-17 05:15:00
10:35 PM,42.8,15.8,34,30.27,10.0,NNE,9.2,-,N/A,,Clear,20,2012-11-17 05:35:00
10:55 PM,41.0,15.8,36,30.27,10.0,North,8.1,-,N/A,,Clear,360,2012-11-17 05:55:00
11:15 PM,39.2,15.8,39,30.28,10.0,NW,8.1,-,N/A,,Clear,320,2012-11-17 06:15:00
11:35 PM,39.2,15.8,39,30.28,10.0,NNW,6.9,-,N/A,,Clear,330,2012-11-17 06:35:00
11:55 PM,37.4,15.8,41,30.28,10.0,North,6.9,-,N/A,,Clear,350,2012-11-17 06:55:00